Colorado Springs, CO

10:06 AM MDT on July 23, 2016 (GMT -0600)
City Of Colorado Springs Municipal

Weather History for KCOS - September, 2013

Change the Weather History Date:

Thursday, September 5, 2013

  Actual Average Record
Temperature  
Mean Temperature 76 °F 65 °F  
Max Temperature 91 °F 78 °F 93 °F (1960)
Min Temperature 61 °F 51 °F 36 °F (1961)
Degree Days  
Heating Degree Days 0 2  
Month to date heating degree days 0 10  
Since 1 July heating degree days 10 41  
Cooling Degree Days 11 2  
Month to date cooling degree days 43 12  
Year to date cooling degree days 645 430  
Growing Degree Days 26 (Base 50)    
Moisture  
Dew Point 46 °F    
Average Humidity 41    
Maximum Humidity 65    
Minimum Humidity 17    
Precipitation  
Precipitation 0.00 in 0.06 in 0.92 in (1909)
Month to date precipitation 0.10 0.31  
Year to date precipitation 13.76 14.10  
Snow  
Snow 0.00 in 0.00 in 0.00 in (2002)
Month to date snowfall 0.0 0.0  
Since 1 July snowfall T 0.0  
Since 1 September snowfall 0.0 0.0  
Snow Depth 0.00 in    
Sea Level Pressure  
Sea Level Pressure 30.02 in    
Wind  
Wind Speed 8 mph (ESE)    
Max Wind Speed 20 mph    
Max Gust Speed 25 mph    
Visibility 10 miles    
Events      
T = Trace of Precipitation, MM = Missing Value Source: NWS Daily Summary

Daily Weather History Graph

Daily Weather History Graph

Search for Another Location

Airport or City:

Trip Planner

Search our weather history database for the weather conditions in past years. The results will help you decide how hot, cold, wet, or windy it might be!

Date:

Astronomy

Sep. 05, 2013 Rise Set
Actual Time 6:31 AM MDT 7:22 PM MDT
Civil Twilight 6:04 AM MDT 7:49 PM MDT
Nautical Twilight 5:32 AM MDT 8:21 PM MDT
Astronomical Twilight 4:59 AM MDT 8:54 PM MDT
Moon 6:45 AM MDT (9/5) 7:16 PM MDT (9/5)
Length of Visible Light 13h 44m
Length of Day
12h 50m
New Moon, 0% of the Moon is Illuminated
Sep 5
New Moon
Sep 12
First Quarter
Sep 19
Full
Sep 26
Last Quarter
Oct 4
New

Hourly Weather History & Observations

Time (MDT) Temp. Dew Point Humidity Pressure Visibility Wind Dir Wind Speed Gust Speed Precip Events Conditions
12:54 AM 69.1 °F 51.1 °F 53% 30.02 in 10.0 mi North 9.2 mph - N/A   Mostly Cloudy
1:54 AM 69.1 °F 51.1 °F 53% 30.02 in 10.0 mi North 8.1 mph - N/A   Scattered Clouds
2:54 AM 69.1 °F 52.0 °F 54% 30.01 in 10.0 mi WNW 4.6 mph - N/A   Mostly Cloudy
3:54 AM 69.1 °F 52.0 °F 54% 30.02 in 10.0 mi Calm Calm - N/A   Mostly Cloudy
4:54 AM 66.0 °F 51.1 °F 59% 30.03 in 10.0 mi North 5.8 mph - N/A   Scattered Clouds
5:54 AM 63.0 °F 50.0 °F 63% 30.05 in 10.0 mi NNW 5.8 mph - N/A   Partly Cloudy
6:54 AM 63.0 °F 48.9 °F 60% 30.07 in 10.0 mi North 5.8 mph - N/A   Scattered Clouds
7:54 AM 63.0 °F 50.0 °F 63% 30.10 in 10.0 mi NW 4.6 mph - N/A   Mostly Cloudy
8:54 AM 72.0 °F 53.1 °F 51% 30.08 in 10.0 mi NNE 3.5 mph - N/A   Mostly Cloudy
9:54 AM 82.0 °F 48.9 °F 31% 30.05 in 10.0 mi East 3.5 mph - N/A   Scattered Clouds
10:54 AM 84.0 °F 48.0 °F 28% 30.05 in 10.0 mi SE 5.8 mph - N/A   Scattered Clouds
11:54 AM 86.0 °F 48.9 °F 28% 30.04 in 10.0 mi SSE 8.1 mph - N/A   Scattered Clouds
12:54 PM 88.0 °F 46.9 °F 24% 30.01 in 10.0 mi SSE 13.8 mph 19.6 mph N/A   Scattered Clouds
1:54 PM 90.0 °F 43.0 °F 19% 29.99 in 10.0 mi South 12.7 mph 24.2 mph N/A   Scattered Clouds
2:54 PM 90.0 °F 43.0 °F 19% 29.97 in 10.0 mi SSE 17.3 mph - N/A   Scattered Clouds
3:54 PM 90.0 °F 39.9 °F 17% 29.96 in 10.0 mi South 17.3 mph 25.3 mph N/A   Scattered Clouds
4:54 PM 89.1 °F 39.0 °F 17% 29.97 in 10.0 mi South 12.7 mph - N/A   Scattered Clouds
5:54 PM 87.1 °F 39.9 °F 19% 29.98 in 10.0 mi SSE 16.1 mph - N/A   Scattered Clouds
6:54 PM 82.0 °F 42.1 °F 24% 29.99 in 10.0 mi SE 8.1 mph - N/A   Scattered Clouds
7:54 PM 78.1 °F 41.0 °F 27% 30.01 in 10.0 mi ESE 6.9 mph - N/A   Scattered Clouds
8:54 PM 75.9 °F 39.9 °F 27% 30.02 in 10.0 mi ESE 9.2 mph - N/A   Clear
9:54 PM 75.0 °F 39.9 °F 28% 29.99 in 10.0 mi East 9.2 mph - N/A   Clear
10:54 PM 73.9 °F 39.0 °F 28% 30.00 in 10.0 mi Calm Calm - N/A   Clear
11:54 PM 66.9 °F 42.1 °F 40% 29.99 in 10.0 mi ENE 6.9 mph - N/A   Clear